SCP
0 0 0 0 0 0 0 0 0 0 0 0 0 0 0 0 0 0 0 0 0 0 0 0 0 0 0 0 0 0 0 0 0 0 0 0 0 0 0 0 0 0 0 0 0 0 0 0 0
0 0 0 0 0 0 0 0 0 0 0 0 0 0 0 0 0 0 0 0 0 0 0 0 0 0 0 0 0 0 0 0 0 0 0 0 0 0 0 0 0 0 0 0 0 0 0 0 0
0 0 0 0 0 0 0 0 0 0 0 0 0 0 0 0 0 0 0 0 0 0 0 0 0 0 0 0 0 0 0 0 0 0 0 0 0 0 0 0 0 0 0 0 0 0 0 0 0
0 0 0 0 0 0 0 0 0 0 0 0 0 0 0 0 0 0 0 0 0 0 0 0 0 0 0 0 0 0 0 0 0 0 0 0 0 0 0 0 0 0 0 0 0 0 0 0 0
0 0 0 0 0 0 0 0 0 0 0 0 0 0 0 0 0 0 0 0 0 0 0 0 0 0 0 0 0 0 0 0 0 0 0 0 0 0 0 0 0 0 0 0 0 0 0 0 0
0 0 0 0 0 0 0 0 0 0 0 0 0 0 0 0 0 0 0 0 0 0 0 0 0 0 0 0 0 0 0 0 0 0 0 0 0 0 0 0 0 0 0 0 0 0 0 0 0
0 0 0 0 0 0 0 0 0 0 0 0 0 0 0 0 0 0 0 0 0 0 0 0 0 0 0 0 0 0 0 0 0 0 0 0 0 0 0 0 0 0 0 0 0 0 0 0 0
0 0 0 0 0 0 0 0 0 0 0 0 0 0 0 0 0 0 0 0 0 0 0 0 0 0 0 0 0 0 0 0 0 0 0 0 0 0 0 0 0 0 0 0 0 0 0 0 0
0 0 0 0 0 0 0 0 0 0 0 0 0 0 0 0 0 0 0 0 0 0 0 0 0 0 0 0 0 0 0 0 0 0 0 0 0 0 0 0 0 0 0 0 0 0 0 0 0
0 0 0 0 0 0 0 0 0 0 0 0 0 0 0 0 0 0 0 0 0 0 0 0 0 0 0 0 0 0 0 0 0 0 0 0 0 0 0 0 0 0 0 0 0 0 0 0 0
0 0 0 0 0 0 0 0 0 0 0 0 0 0 0 0 0 0 0 0 0 0 0 0 0 0 0 0 0 0 0 0 0 0 0 0 0 0 0 0 0 0 0 0 0 0 0 0 0
0 0 0 0 0 0 0 0 0 0 0 0 0 0 0 0 0 0 0 0 0 0 0 0 0 0 0 0 0 0 0 0 0 0 0 0 0 0 0 0 0 0 0 0 0 0 0 0 0
0 0 0 -0 0 0 0 0 0 0 0 0 0 0 0 0 0 0 0 0 0 0 0 0 0 0 0 0 0 0 0 0 0 0 0 0 0 0 0 0 0 0 0 0 0 0 0 0 0
0 0 0 0 0 0 0 0 0 0 0 0 0 0 0 0 0 0 0 0 0 0 0 0 0 0 0 0 0 0 0 0 0 0 0 0 0 0 0 0 0 0 0 0 0 0 0 0 0
0 0 0 0 0 0 0 0 0 0 0 0 0 0 0 0 0 0 0 0 0 0 0 0 0 0 0 0 0 0 0 0 0 0 0 0 0 0 0 0 0 0 0 0 0 0 0 0 0
0 0 0 0 0 0 0 0 0 0 0 0 0 0 0 0 0 0 0 0 0 0 0 0 0 0 0 0 0 0 0 0 0 0 0 0 0 0 0 0 0 0 0 0 0 0 0 0 0
0 0 0 0 0 0 0 0 0 0 0 0 0 0 0 0 0 0 0 0 0 0 0 0 0 0 0 0 0 0 0 0 0 0 0 0 0 0 0 0 0 0 0 0 0 0 0 0 0
0 0 0 0 0 0 0 0 0 0 0 0 0 0 0 0 0 0 0 0 0 0 0 0 0 0 0 0 0 0 0 0 0 0 0 0 0 0 0 0 0 0 0 0 0 0 0 0 0
0 0 0 0 0 0 0 0 0 0 0 0 0 0 0 0 0 0 0 0 0 0 0 0 0 0 0 0 0 0 0 0 0 0 0 0 0 0 0 0 0 0 0 0 0 0 0 0 0
0 0 0 0 0 0 0 0 0 0 0 0 0 0 0 0 0 0 0 0 0 0 0 0 0 0 0 0 0 0 0 0 0 0 0 0 0 0 0 0 0 0 0 0 0 0 0 0 0
0 0 0 0 0 0 0 0 0 0 0 0 0 0 0 0 0 0 0 0 0 0 0 0 0 0 0 0 0 0 0 0 0 0 0 0 0 0 0 0 0 0 0 0 0 0 0 0 0
0 0 0 0 0 0 0 0 0 0 0 0 0 0 0 0 0 0 0 0 0 0 0 0 0 0 0 0 0 0 0 0 0 0 0 0 0 0 0 0 0 0 0 0 0 0 0 0 0
0 0 0 0 0 0 0 0 0 0 0 0 0 0 0 0 0 0 0 0 0 0 0 0 0 0 0 0 0 0 0 0 0 0 0 0 0 0 0 0 0 0 0 0 0 0 0 0 0
0 0 0 0 0 0 0 0 0 0 0 0 0 0 0 0 0 0 0 0 0 0 0 0 0 0 0 0 0 0 0 0 0 0 0 0 0 0 0 0 0 0 0 0 0 0 0 0 0
0 0 0 0 0 0 0 0 0 0 0 0 0 0 0 0 0 0 0 0 0 0 0 0 0 0 0 0 0 0 0 0 0 0 0 0 0 0 0 0 0 0 0 0 0 0 0 0 0
0 0 0 0 0 0 0 0 0 0 0 0 0 0 0 0 0 0 0 0 0 0 0 0 0 0 0 0 0 0 0 0 0 0 0 0 0 0 0 0 0 0 0 0 0 0 0 0 0
0 0 0 0 0 0 0 0 0 0 0 0 0 0 0 0 0 0 0 0 0 0 0 0 0 0 0 0 0 0 0 0 0 0 0 0 0 0 0 0 0 0 0 0 0 0 0 0 0
0 0 0 0 0 0 0 0 0 0 0 0 0 0 0 0 0 0 0 0 0 0 0 0 0 0 0 0 0 0 0 0 0 0 0 0 0 0 0 0 0 0 0 0 0 0 0 0 0
0 0 0 0 0 0 0 0 0 0 0 0 0 0 0 0 0 0 0 0 0 0 0 0 0 0 0 0 0 0 0 0 0 0 0 0 0 0 0 0 0 0 0 0 0 0 0 0 0
0 0 0 0 0 0 0 0 0 0 0 0 0 0 0 0 0 0 0 0 0 0 0 0 0 0 0 0 0 0 0 0 0 0 0 0 0 0 0 0 0 0 0 0 0 0 0 0 0
Wind_Speed
7 4 3 3 4 4 6 3 3 4 3 1 1 2 1 2 3 3 5 4 5 4 3 3 5 6 5 5 5 5 6 6 6 7 7 7 8 7 8 8 8 9 10 11 11 11 12 12 13
5 3 2 3 6 7 5 4 5 3 2 1 0 1 0 1 3 4 3 4 4 3 3 3 6 6 5 4 5 5 5 5 6 6 7 7 8 7 7 7 8 9 10 10 11 11 11 11 12
2 2 2 3 5 6 4 5 4 3 2 1 1 1 2 1 3 2 4 3 3 3 3 4 6 6 6 4 4 5 5 5 5 6 6 7 7 7 7 7 8 8 9 10 10 10 11 11 11
2 2 2 4 7 4 2 3 3 4 3 1 1 1 1 3 3 3 3 3 3 3 4 4 7 6 5 4 4 4 4 5 5 6 6 6 7 7 8 7 7 8 8 9 10 10 10 10 11
1 3 4 5 6 4 2 2 4 4 3 2 2 1 2 3 4 3 3 3 3 3 3 4 7 7 5 4 4 4 4 4 4 5 6 6 6 7 7 7 7 8 8 8 9 10 10 10 10
2 3 6 7 7 4 3 2 4 3 2 2 2 2 2 3 4 4 3 2 3 3 3 3 5 7 6 5 4 4 4 4 4 5 6 6 6 6 7 7 7 7 7 8 8 9 10 10 10
2 3 5 6 6 6 4 3 3 2 3 1 1 2 2 1 4 4 3 3 3 3 3 3 2 3 5 5 5 5 5 5 5 5 5 6 6 6 6 6 6 7 7 8 8 8 9 9 9
1 2 4 4 6 5 3 2 1 2 1 1 1 2 1 2 4 3 2 2 2 3 3 3 3 3 2 2 4 4 4 4 4 5 5 5 5 6 6 5 6 6 6 7 8 8 9 9 9
2 4 4 4 3 3 3 1 0 1 1 1 1 3 3 1 2 2 2 2 2 3 3 3 3 3 3 2 2 3 3 3 3 3 4 3 3 4 4 5 5 6 6 7 8 8 9 8 8
1 3 2 1 1 2 2 2 1 3 3 3 2 2 1 1 1 2 2 2 3 4 4 3 3 3 2 2 1 0 0 1 2 2 2 2 2 2 2 5 5 5 5 7 8 8 7 5 5
2 1 2 1 0 1 2 1 2 4 4 4 4 2 1 2 2 2 3 3 3 3 3 3 3 3 2 1 1 1 1 0 1 2 2 2 2 1 1 2 3 4 4 5 6 5 4 3 3
2 2 1 0 0 1 2 2 2 4 4 3 3 2 3 2 3 3 4 4 4 3 3 3 3 2 2 1 1 1 0 0 1 1 1 1 1 1 1 1 2 2 2 3 3 2 3 4 4
2 2 1 1 1 1 1 3 3 4 5 3 2 2 3 3 3 3 3 4 3 3 3 3 3 2 1 1 1 1 0 0 1 1 1 1 1 2 2 2 2 2 2 2 2 2 3 3 4
2 2 1 0 0 1 2 3 3 4 3 2 1 2 2 2 2 3 3 4 4 4 4 3 2 1 1 1 1 1 0 0 1 1 1 1 1 1 2 2 2 2 2 2 2 3 3 2 3
3 2 2 1 1 1 2 4 4 2 1 1 1 1 1 2 2 3 3 4 4 4 4 3 2 1 1 0 1 1 1 0 1 1 1 1 1 2 2 2 2 1 2 2 2 3 2 2 2
2 3 3 1 1 1 4 6 1 0 2 3 2 1 1 2 2 3 3 3 3 3 3 3 1 1 1 1 1 0 1 0 1 1 1 1 1 2 1 2 2 1 1 2 2 2 3 2 2
2 3 4 2 2 2 5 8 2 1 3 4 3 3 2 2 2 3 3 3 3 3 2 2 1 1 1 1 1 0 0 0 0 1 1 1 1 1 2 2 2 2 2 1 2 2 2 3 2
2 4 4 4 1 4 7 10 5 3 5 5 4 3 3 3 3 3 3 2 2 2 2 2 1 1 1 1 1 1 0 0 0 1 1 1 1 1 2 2 2 2 2 2 2 3 2 3 2
3 4 6 4 1 5 9 11 9 5 5 5 5 4 4 4 3 2 2 2 2 2 2 2 1 0 1 1 1 1 1 1 0 1 1 2 1 1 2 2 3 2 2 3 3 3 3 3 2
3 5 5 3 2 5 8 11 8 5 5 5 5 5 5 4 3 3 3 2 2 2 2 2 1 1 1 1 1 1 1 1 1 1 2 2 2 1 2 2 3 2 2 3 4 4 3 2 2
4 5 5 5 5 4 6 8 5 3 3 3 4 4 4 4 4 4 3 2 2 2 2 2 2 2 1 1 1 1 1 2 1 1 1 1 1 1 1 2 2 3 3 3 4 4 4 4 3
4 2 5 5 5 3 2 7 5 3 3 3 4 4 4 4 3 4 4 3 3 3 3 3 2 2 1 2 2 3 3 2 1 1 1 1 2 2 2 2 3 3 2 3 4 4 4 5 4
3 3 4 4 5 5 4 6 6 2 4 3 4 4 4 4 3 4 5 4 3 3 3 2 2 2 2 2 3 3 3 2 1 2 2 2 2 2 2 2 2 3 3 3 3 4 5 5 4
2 2 2 3 4 5 3 6 6 2 4 4 4 4 4 4 4 4 4 4 3 3 3 2 2 2 2 2 3 4 4 4 3 3 3 2 2 2 2 2 2 3 3 3 3 4 4 4 5
1 2 3 3 3 4 2 6 7 2 3 4 5 5 4 4 4 4 4 4 4 4 3 3 3 2 2 2 3 3 3 3 4 4 3 3 2 2 3 2 3 3 3 3 3 4 4 4 5
2 2 3 5 5 4 3 8 4 1 3 4 4 5 5 5 4 5 5 4 4 4 4 3 3 3 3 3 3 3 3 2 3 4 4 3 3 2 2 3 3 3 4 3 3 3 3 3 4
2 2 2 3 3 6 7 6 5 2 4 4 4 5 6 6 6 5 5 4 4 4 4 4 4 3 3 3 3 3 3 3 4 4 4 3 3 3 3 3 4 4 4 4 3 3 4 4 4
2 1 2 3 4 7 7 6 4 3 4 5 5 6 7 6 6 6 5 5 5 4 4 4 4 3 3 3 3 2 3 3 4 3 4 3 3 3 4 3 4 4 4 4 4 4 4 4 4
2 2 3 3 4 6 7 5 1 2 4 5 6 6 7 7 7 6 6 5 5 4 3 3 3 3 3 3 2 3 2 2 3 3 3 3 3 3 4 4 4 4 4 5 4 4 4 4 4
3 3 4 4 4 5 7 6 3 2 4 6 7 7 7 8 7 7 6 5 4 4 3 3 3 3 3 2 2 2 1 2 2 2 2 3 3 3 3 4 4 5 5 5 5 5 5 5 5
Wind_Direction
329 319 273 231 210 217 222 185 181 161 148 66 5 292 308 341 332 52 58 35 11 9 11 14 3 12 34 53 53 63 73 80 96 108 109 106 106 106 105 103 107 108 106 105 103 100 99 99 98
325 301 234 219 228 221 206 180 178 151 96 98 100 258 211 83 37 43 42 17 2 10 19 23 12 16 28 53 58 61 70 76 87 96 104 105 103 101 103 102 101 105 107 106 104 101 101 101 101
316 301 233 202 225 237 194 164 160 135 132 171 112 7 346 38 47 38 22 4 2 17 24 25 13 17 25 47 61 60 59 65 85 91 95 103 102 99 99 97 94 98 105 108 107 104 104 103 103
269 193 204 219 212 226 223 155 157 165 171 171 183 140 104 46 19 22 21 12 12 19 22 29 11 12 20 34 55 60 63 58 79 94 92 95 99 100 96 91 91 91 99 108 109 108 107 105 105
270 224 200 208 210 197 205 178 182 187 184 187 215 201 134 66 23 26 24 14 8 8 16 29 14 10 17 26 47 53 64 61 70 97 98 94 95 97 95 90 91 90 97 105 110 111 110 107 105
200 226 221 214 199 191 173 177 195 194 182 185 217 209 148 63 16 3 8 360 360 1 8 22 19 12 12 17 36 48 54 63 64 93 96 92 90 94 93 94 94 95 102 102 107 111 112 111 107
241 226 231 220 200 197 173 187 197 210 204 186 245 215 169 53 359 346 348 350 2 5 2 3 11 12 11 12 22 39 51 59 66 71 84 82 82 87 91 89 93 93 99 104 101 112 113 111 107
335 196 194 204 208 195 149 172 195 248 213 78 224 228 223 321 335 327 332 343 1 3 358 357 356 357 356 7 23 28 52 66 72 69 62 75 88 90 86 89 85 90 95 104 103 105 111 110 106
264 222 214 203 210 168 143 185 110 299 174 198 254 306 319 330 312 312 328 337 353 357 352 348 349 354 350 335 13 24 51 68 87 84 65 73 119 121 117 92 77 86 95 105 105 104 106 108 105
285 221 205 123 283 164 182 234 229 203 224 240 257 307 331 278 279 305 310 311 325 334 338 343 344 346 343 343 344 349 119 122 120 121 118 119 109 100 117 101 85 87 94 105 101 103 117 130 130
33 147 145 130 15 183 196 229 226 227 233 248 258 270 273 275 291 297 295 301 299 307 322 335 339 343 339 346 339 2 340 162 142 129 128 133 116 108 113 120 114 111 115 114 112 125 135 136 134
109 87 130 160 192 223 223 224 230 239 265 302 270 233 231 251 272 283 288 295 305 301 314 326 328 332 343 330 337 322 5 4 107 124 137 145 127 121 135 130 131 126 120 123 126 127 125 138 142
140 148 108 60 85 221 236 240 255 259 292 292 257 223 232 257 285 293 289 288 296 303 309 313 314 323 327 327 321 327 343 287 145 127 139 139 144 140 141 138 136 125 113 131 133 131 130 136 143
119 131 157 17 168 199 270 266 244 270 300 278 222 230 244 269 295 301 300 300 299 304 302 307 307 306 307 309 316 309 269 301 196 156 157 158 139 149 152 145 146 135 123 138 156 139 139 136 141
148 160 172 213 254 198 284 255 236 287 282 248 223 232 268 292 295 295 299 298 297 299 303 303 300 295 289 278 263 315 251 250 218 173 170 161 141 135 156 151 149 144 138 147 149 135 133 125 135
182 207 223 174 246 246 264 263 277 351 247 248 244 252 271 292 302 306 303 300 300 297 305 302 298 294 260 189 219 262 278 243 235 173 165 162 142 131 142 151 145 148 144 148 145 140 134 127 137
188 242 256 243 188 266 253 266 301 265 255 252 249 257 267 282 313 324 320 315 308 303 306 302 286 267 248 181 180 178 310 235 264 166 139 123 121 131 143 138 143 155 153 151 151 143 145 138 133
245 259 255 265 244 268 255 264 277 251 254 255 254 260 266 273 291 303 315 326 329 325 321 305 264 256 240 180 169 173 286 221 232 184 134 123 108 115 142 141 140 152 156 158 162 153 146 146 139
252 250 266 274 289 273 259 271 275 252 251 261 259 262 268 279 287 302 315 336 347 354 348 338 309 249 233 205 204 202 235 232 223 175 142 142 134 133 152 149 147 147 163 171 170 157 150 138 146
254 262 272 279 288 275 277 277 266 242 238 257 268 261 262 281 296 303 311 324 330 338 332 315 294 268 249 242 238 218 236 221 202 175 146 148 142 152 160 152 158 157 164 172 170 162 159 153 164
267 262 280 296 303 245 282 265 221 207 225 272 279 280 283 280 284 287 288 296 299 305 304 291 275 265 253 245 216 188 224 211 182 170 157 152 155 150 153 161 161 166 175 178 177 175 170 173 178
270 276 279 279 279 273 294 283 242 230 257 283 293 291 290 288 286 287 284 279 278 278 282 277 265 260 254 237 224 210 221 220 215 198 185 175 176 175 169 176 173 170 178 190 188 185 181 181 187
279 310 277 257 250 265 223 256 262 214 269 292 306 297 295 293 285 287 287 281 280 273 268 262 263 258 246 230 222 213 214 217 218 194 185 185 193 190 180 182 179 182 189 198 197 188 189 188 192
289 272 217 207 231 248 217 246 267 213 254 281 294 306 302 294 291 291 293 291 292 289 278 267 265 267 258 238 227 215 209 205 216 212 200 201 208 192 179 187 188 193 195 204 206 198 195 197 198
286 286 278 252 238 251 155 251 261 258 281 285 295 306 308 296 289 289 292 291 288 284 279 271 263 267 264 239 233 219 211 215 227 227 212 211 215 207 193 193 199 203 204 206 211 205 201 203 203
241 266 276 282 282 290 228 249 268 275 301 308 312 311 311 305 296 290 287 283 279 279 271 263 255 259 261 248 236 229 219 226 242 237 225 215 217 217 210 204 206 210 210 207 211 207 204 206 210
217 215 326 280 280 273 256 268 280 270 293 307 315 318 309 308 304 296 290 291 288 279 272 265 257 251 252 254 245 236 231 232 241 228 224 220 220 212 208 214 213 212 208 204 207 212 212 207 211
322 168 192 229 270 275 271 262 275 299 298 311 313 310 309 311 309 303 296 296 291 281 275 270 263 259 269 269 265 259 251 244 241 233 224 220 224 218 212 217 222 217 209 205 210 212 217 215 213
175 188 234 241 261 272 282 278 32 306 320 309 312 316 315 309 304 298 296 293 292 291 285 285 289 290 282 276 267 258 247 239 240 240 237 225 223 220 218 217 223 217 212 210 216 218 214 217 218
244 232 211 242 242 243 271 281 67 353 340 324 318 319 316 310 307 304 301 297 297 298 301 298 294 286 277 267 261 263 258 245 246 249 251 241 227 223 222 221 221 220 219 215 217 221 217 217 220